Weather in Shuya

Russia / Republic of Karelia     61˚53′56″N   34˚14′24″E
temp.,
°C
wind,
m/s
gust,
m/s
humid.,
%
clouds,
%
prec.,
mm/h
press.,
hPa
HPBL,
m
28 november, sat
sat2800:00−2˚e498998 0.4 1022616
03:00−2˚e478699 0.4 1024626
06:00−2˚e4887100 0.0 1026548
09:00−2˚ene3787100 0.1 1028482
12:00−2˚ene368898 0.0 1030510
15:00−3˚e368998 0.1 1031480
18:00−3˚e368796 0.0 1032578
21:00−3˚e358998 0.1 1034494
29 november, sun
sun2900:00−3˚ese3690100 0.1 1034446
03:00−2˚ese3689100 0.1 1035547
06:00−2˚ese3688100 0.0 1034539
09:00−2˚se3687100 0.1 1035539
12:00−2˚se368898 0.0 1035499
15:00−2˚se368797 0.1 1034514
18:00−3˚sse368997 0.0 1033490
21:00−2˚ese269098 0.1 1033328
30 november, mon
mon3000:00−1˚se389599 0.2 1031510
03:00+1˚se389199 0.3 1030483
06:00+1˚sse3991100 0.0 1027583
09:00+2˚sse3994100 0.0 1027459
12:00+2˚sse3998100 0.1 1026497
15:00+2˚sse3896100 0.2 1025413
18:00+2˚sse3998100 0.1 1023468
21:00+2˚sse31096100 0.2 1023485
1 december, tue
tue100:00+2˚sse4997100 0.1 1022516
03:00+2˚sse3897100 0.2 1021420
06:00+1˚sse4997100 0.9 1020492
09:00sw41093100 1.9 1020731
12:00−2˚ssw398792 0.0 1021676
15:00−2˚s398881 0.0 1022612
18:00−2˚ssw3118889 0.0 1023619
21:00−2˚ssw3108777 0.0 1024660
2 december, wed
wed200:00−1˚s41285100 0.0 1025695
03:00+1˚ssw41187100 0.0 1026661
06:00+2˚ssw41091100 0.1 1027577
09:00+1˚ssw4991100 0.1 1028478
12:00ssw389096 0.0 1030453
15:00ssw368996 0.0 1030447
18:00−1˚ssw2689100 0.0 1031407
21:00−3˚s259381 0.0 1032191